Theta_e
305 306 307 308 308 307 306 303 302 302 300 300 299 297 297 296 295 294 295 296 297 298 299 301 302 303 303 303 303 303 303 302 302 301 301 300 297 296 295 292 290 287
304 305 305 307 305 304 304 303 301 301 300 300 301 300 299 297 296 294 294 294 295 296 298 299 300 301 301 301 302 301 298 297 297 299 297 295 294 294 291 289 286 284
302 303 303 303 304 302 301 302 302 302 301 300 300 301 299 297 295 294 293 293 294 295 296 297 298 299 299 299 299 297 296 294 293 292 293 293 292 291 289 287 285 283
301 302 302 302 303 302 301 300 301 300 300 300 299 298 297 296 294 293 293 292 293 293 293 294 295 294 293 293 293 294 294 294 293 291 291 290 290 290 288 286 284 282
301 301 302 301 301 301 301 300 299 299 298 298 297 295 294 293 292 291 291 291 291 290 291 292 292 292 292 292 291 290 290 290 290 291 290 288 288 287 285 285 283 281
300 301 301 301 300 300 299 299 298 297 297 296 296 293 292 291 291 290 290 290 290 290 290 290 291 290 291 291 291 290 290 289 289 289 288 287 285 285 284 283 282 281
299 299 298 298 298 299 298 298 296 295 294 295 293 292 291 290 290 290 290 289 289 289 289 289 290 290 290 290 290 289 288 288 287 287 286 284 283 281 281 281 281 280
298 297 297 296 295 295 295 295 295 294 293 292 292 290 290 290 289 289 289 288 288 288 289 289 289 289 289 290 289 288 287 287 286 285 284 282 282 281 280 281 280 279
296 295 294 293 293 293 293 293 293 292 291 291 290 288 289 290 289 288 288 288 288 287 288 288 288 288 288 289 288 288 286 286 285 285 283 281 280 280 280 279 279 279
294 293 292 291 292 291 292 292 292 291 290 291 290 288 288 288 288 288 287 287 287 286 287 287 287 288 288 288 288 287 286 286 284 284 282 281 281 280 279 279 279 278
293 292 292 291 291 290 290 290 290 290 289 290 289 288 288 287 287 287 286 286 286 286 286 286 286 287 287 287 287 286 286 285 283 283 282 280 280 280 281 279 279 279
292 292 292 292 291 290 289 289 289 289 289 289 289 288 287 287 287 286 286 286 286 286 285 285 285 285 285 285 285 285 284 284 283 282 281 280 279 280 279 279 279 279
292 292 292 292 291 291 290 289 288 288 288 288 288 288 287 286 286 286 286 286 285 285 285 284 284 284 284 284 284 284 284 283 282 281 280 279 278 279 279 279 278 278
292 291 291 291 291 290 289 289 288 287 287 287 287 287 286 286 286 286 286 286 285 285 284 284 283 283 284 284 284 283 283 282 281 281 280 279 278 279 279 279 278 278
291 291 290 290 290 289 288 288 287 287 286 286 286 286 286 286 285 285 285 285 284 284 284 284 283 283 284 283 283 282 282 282 281 281 280 279 279 278 278 277 277 278
291 290 290 289 289 289 288 287 286 286 286 285 284 284 285 285 284 284 284 284 283 283 283 283 283 284 284 286 286 283 282 282 281 280 280 279 277 277 277 278 278 278
290 289 288 288 288 288 287 286 285 285 285 285 283 283 284 284 284 283 283 283 283 282 281 281 283 283 285 288 288 287 283 281 281 280 279 279 278 278 277 277 277 278
289 288 288 287 287 287 286 285 284 284 284 285 284 283 284 284 283 283 283 282 282 281 280 280 282 285 288 288 289 288 285 282 281 281 280 279 278 278 277 277 277 278
288 287 287 286 286 285 285 284 284 283 284 284 284 284 284 284 283 283 283 282 282 281 280 280 281 287 288 289 289 289 287 284 281 281 280 279 278 278 277 277 277 278
287 287 287 286 285 285 284 283 283 283 284 284 284 284 283 283 283 283 283 282 282 282 282 281 281 287 288 289 288 289 287 285 281 281 280 279 278 278 278 278 278 278
287 286 286 285 285 284 283 283 283 283 283 284 284 284 283 283 283 282 282 282 282 282 282 281 281 288 289 288 289 288 288 285 281 281 280 279 279 278 278 278 278 278
286 285 285 284 284 283 283 282 282 282 283 284 284 283 284 283 283 283 282 282 282 282 281 281 282 287 287 288 288 288 287 282 282 281 280 279 279 278 278 278 278 279
286 285 284 284 283 283 282 281 281 281 282 284 283 283 283 282 282 282 282 282 282 281 281 281 281 285 287 287 287 288 285 282 281 281 280 279 278 278 278 279 280 280
285 285 284 283 283 282 282 281 281 281 282 283 283 282 282 282 282 282 282 282 281 281 281 280 280 284 287 287 287 287 283 281 281 280 279 278 278 279 279 279 280 282
284 284 284 283 282 282 281 281 281 281 282 283 283 283 282 282 282 281 281 281 281 281 282 280 280 283 287 287 287 286 283 281 280 279 278 278 278 278 279 279 280 282
284 284 283 283 282 281 281 281 281 281 281 282 282 282 282 281 281 281 280 280 280 280 281 280 280 282 285 287 287 286 284 281 280 279 278 278 279 279 278 279 279 280
Wind_Speed
8 7 8 8 7 7 7 7 7 8 8 7 8 8 9 8 8 9 9 8 8 8 8 8 8 8 8 8 8 8 8 10 9 6 8 8 8 9 8 8 7 7
8 7 6 6 5 5 6 7 8 8 7 7 7 7 7 7 8 9 9 8 8 8 8 8 7 8 8 8 8 8 7 6 7 6 7 7 8 9 7 8 8 7
7 7 7 7 8 6 6 7 7 7 7 7 7 6 7 6 7 7 7 7 7 8 7 7 7 7 7 7 7 8 8 7 7 5 6 8 8 9 7 8 7 8
8 8 8 7 7 8 6 6 6 6 6 6 7 6 6 6 7 7 6 7 6 6 6 6 7 6 6 5 5 7 7 8 8 7 7 6 7 9 8 8 7 7
9 8 8 7 6 6 6 7 6 5 6 6 6 6 7 7 7 7 7 7 7 6 5 6 6 6 6 7 6 5 5 6 6 8 9 8 7 8 7 8 9 8
7 8 8 8 7 7 7 7 6 6 6 5 6 6 6 6 7 7 7 8 7 6 6 7 7 6 7 7 7 6 7 6 7 8 9 9 7 6 7 7 9 9
9 8 8 7 7 7 7 7 6 6 6 6 5 6 6 7 7 7 8 8 7 6 8 8 8 8 7 7 7 7 6 7 7 8 9 7 8 7 6 8 9 10
9 7 8 6 7 7 7 7 7 7 6 6 6 6 7 8 8 7 7 8 8 8 7 6 6 7 7 7 8 8 7 6 8 9 9 8 7 9 8 7 9 11
7 8 8 8 9 7 7 7 6 7 7 8 7 6 6 7 8 8 8 8 7 7 7 7 7 7 7 8 8 9 9 9 9 10 11 11 10 10 10 9 10 10
8 7 9 9 9 8 9 7 8 8 8 8 8 7 8 6 7 7 7 8 8 8 8 8 8 8 8 8 9 10 9 10 10 10 10 11 11 11 11 11 11 11
8 8 9 9 9 8 9 8 9 8 8 9 8 8 8 8 7 7 8 8 8 9 10 10 10 10 10 10 9 9 10 9 10 10 10 11 11 11 11 12 12 12
10 9 10 10 10 8 9 9 9 8 9 8 9 9 8 8 9 7 8 9 9 9 9 9 9 9 10 9 9 9 9 8 9 9 8 8 9 9 10 10 11 12
11 11 10 10 10 9 8 8 8 8 9 9 8 9 9 8 8 8 8 9 9 8 8 9 8 8 9 8 8 8 9 9 8 7 7 7 8 9 9 9 10 11
10 9 9 9 8 8 8 8 8 8 9 8 8 9 8 8 9 9 8 7 7 7 6 6 7 7 7 7 7 9 9 9 10 10 9 7 7 7 8 9 9 10
8 7 7 8 8 8 8 8 8 8 8 8 8 7 6 8 7 7 8 8 7 7 7 6 7 7 7 8 9 9 9 10 10 11 10 10 8 8 7 8 8 8
9 8 8 8 8 9 8 8 8 8 9 9 8 7 7 7 6 6 7 7 7 7 7 6 7 6 8 14 12 10 9 7 7 8 10 10 10 9 7 7 8 7
8 8 8 9 8 8 7 8 8 7 8 8 7 7 8 7 7 8 7 7 8 7 7 6 5 5 11 13 13 12 8 8 9 8 9 10 11 11 11 9 6 6
8 8 8 8 8 8 8 7 7 7 7 7 7 7 6 6 7 7 6 6 5 5 6 6 6 7 11 12 12 12 10 10 9 9 9 9 9 9 9 9 9 8
7 8 8 8 8 7 7 7 8 8 7 7 8 7 6 7 6 7 7 6 6 6 6 5 5 9 12 14 15 14 13 10 7 8 9 9 10 10 10 10 9 8
7 8 8 8 7 8 7 8 8 8 7 7 7 7 7 6 6 7 7 7 7 6 5 5 5 9 14 14 13 13 13 10 6 7 7 8 10 10 10 11 11 11
8 8 8 8 8 8 8 8 8 7 8 8 8 8 9 9 9 8 7 7 6 6 5 5 4 10 12 13 12 12 13 8 5 5 5 5 6 8 9 10 10 10
8 8 8 8 8 8 8 8 8 9 9 7 7 6 5 5 5 6 7 7 7 7 7 6 5 10 11 12 13 13 12 6 6 6 6 5 5 6 6 6 8 9
8 9 8 9 9 9 9 9 9 8 7 6 7 7 7 6 6 6 5 6 6 6 6 5 5 10 13 13 13 15 10 6 6 6 5 6 5 5 6 6 7 8
8 9 9 9 9 10 9 8 7 7 8 7 9 8 7 7 6 6 5 6 7 6 6 6 5 9 14 14 15 14 10 8 7 7 6 6 5 4 4 5 6 9
7 8 9 9 9 8 9 9 9 8 7 6 6 6 7 6 6 6 6 5 5 6 8 8 6 8 14 16 17 16 11 7 8 7 8 7 7 6 4 4 5 6
7 8 8 9 8 7 7 8 7 7 7 7 6 6 7 6 6 6 7 5 5 5 6 6 7 6 10 17 17 17 15 9 7 8 8 8 6 7 7 4 4 4
Wind_Direction
202 198 198 202 207 199 186 179 180 182 183 181 186 192 192 194 179 187 190 189 192 193 192 187 182 183 183 185 189 190 194 193 196 197 189 172 165 157 166 164 157 142
210 206 199 196 195 189 184 179 181 183 184 183 188 186 185 171 180 179 185 189 190 197 191 187 184 186 186 185 184 181 178 178 186 178 167 151 155 149 150 147 140 133
203 206 198 197 198 196 185 183 180 183 181 185 181 171 167 165 164 173 177 186 188 191 188 183 181 187 186 191 184 173 176 172 169 167 156 154 147 146 146 135 135 137
195 199 199 197 194 196 186 176 183 172 166 171 180 172 159 160 158 164 172 178 181 185 182 176 180 175 169 163 163 172 173 170 165 150 142 141 150 143 145 132 127 121
191 198 204 202 196 185 183 185 183 174 173 168 155 155 151 149 153 161 165 173 174 183 178 174 167 170 165 159 157 156 154 150 154 147 145 150 156 144 146 135 134 127
191 190 195 199 197 189 185 189 183 176 173 167 167 158 160 152 156 165 168 172 177 178 178 167 164 167 165 166 161 166 162 158 165 152 152 153 152 146 144 139 134 132
188 185 189 185 191 198 196 189 177 172 176 175 152 171 152 159 165 171 171 174 173 179 180 173 170 170 169 162 161 166 167 163 159 158 153 154 146 147 145 141 136 135
188 180 179 180 186 190 191 187 173 172 168 159 175 173 165 168 174 171 172 172 173 177 179 174 169 169 167 166 168 168 168 166 164 159 153 151 151 150 152 146 138 135
190 175 166 177 183 188 188 180 170 162 162 170 175 170 174 174 174 172 175 172 172 173 173 174 173 172 174 170 175 177 175 176 171 164 159 158 161 162 155 143 137 138
198 182 169 172 180 184 186 180 170 168 166 172 172 168 174 176 172 172 169 171 174 175 177 177 175 175 177 182 179 178 177 176 174 170 166 167 165 161 152 148 146 140
200 188 181 181 181 179 182 175 173 168 170 172 168 173 174 168 173 168 170 175 180 183 183 183 183 180 182 184 183 179 175 173 175 173 172 171 168 161 155 150 152 149
198 192 188 184 184 182 180 178 174 170 170 173 171 172 171 175 170 171 176 183 187 189 186 185 179 179 180 182 179 173 171 173 175 174 171 165 160 154 152 153 151 149
198 197 187 185 185 184 178 177 176 172 170 175 174 172 172 171 173 175 184 184 190 185 185 179 176 175 173 171 172 170 166 164 166 162 154 157 159 154 151 148 145 145
203 194 187 184 181 179 181 179 173 172 175 172 171 176 175 172 176 183 187 185 187 186 182 171 169 173 173 168 169 168 167 167 164 160 155 151 147 144 142 142 145 147
200 197 183 179 176 178 179 179 174 172 170 171 175 175 170 175 174 176 174 182 179 178 179 177 178 182 180 173 168 170 167 167 166 159 149 143 140 134 131 135 142 148
199 191 181 175 178 179 179 176 172 169 167 170 174 170 168 165 162 165 174 176 175 180 179 179 187 184 179 176 173 168 167 158 147 148 145 143 140 136 135 145 147 145
198 192 171 179 181 176 173 171 172 166 165 164 164 163 162 160 159 167 173 177 182 180 177 177 176 174 177 178 175 158 150 151 151 151 150 153 154 152 150 146 133 129
199 182 174 175 170 177 170 170 166 164 165 161 156 156 155 149 159 166 166 169 170 175 175 175 176 167 165 175 160 151 154 161 161 158 160 157 152 148 143 141 141 138
191 183 174 169 173 166 165 162 163 164 163 158 162 157 149 161 166 160 170 169 171 177 181 175 172 160 163 170 166 162 163 159 156 159 158 159 154 153 151 148 146 141
186 177 174 170 162 161 160 162 162 167 161 157 151 151 157 156 155 164 165 172 174 175 172 166 165 163 160 169 170 163 155 152 164 160 158 155 155 155 154 152 153 149
182 174 169 162 161 159 160 164 163 155 155 159 158 162 164 169 170 170 172 167 164 157 153 156 160 167 161 161 149 150 152 134 135 130 134 141 146 154 158 155 153 151
173 169 162 157 158 160 161 163 162 160 160 157 152 155 152 142 144 153 161 168 166 162 157 157 157 161 155 157 152 157 144 126 137 137 136 136 137 142 146 148 150 150
170 162 160 158 158 159 163 163 159 154 151 146 146 151 153 157 160 159 156 153 155 158 155 149 150 165 158 158 161 153 128 133 128 126 126 130 136 135 143 148 148 147
165 158 156 157 157 163 164 161 154 148 152 154 153 155 157 157 146 142 145 149 153 157 158 150 152 165 162 162 162 147 134 136 138 133 135 129 125 125 127 138 144 141
155 154 154 156 158 159 156 154 156 154 146 141 142 139 140 136 139 140 142 146 155 154 153 147 151 166 165 163 160 148 139 139 138 139 137 141 140 141 136 132 132 135
150 149 150 150 150 146 147 146 136 131 139 137 136 136 136 136 132 134 136 139 141 146 150 149 151 165 171 168 163 153 149 145 148 145 150 149 150 150 153 156 145 152